Beaufort, SC

8:15 PM EDT on June 23, 2017 (GMT -0400)
Beaufort

Weather History for KARW - March, 2014

Change the Weather History Date:

Sunday, March 9, 2014

  Actual Average (KNBC) Record (KNBC)
Temperature  
Mean Temperature 62 °F -  
Max Temperature 77 °F 67 °F 89 °F (1974)
Min Temperature 48 °F 45 °F 28 °F (1947)
Degree Days  
Heating Degree Days 2    
Growing Degree Days 12 (Base 50)    
Moisture  
Dew Point 48 °F    
Average Humidity 67    
Maximum Humidity 100    
Minimum Humidity 34    
Precipitation  
Precipitation 0.00 in - - ()
Sea Level Pressure  
Sea Level Pressure 30.08 in    
Wind  
Wind Speed 7 mph (WSW)    
Max Wind Speed 15 mph    
Max Gust Speed 24 mph    
Visibility 8 miles    
Events      
Averages and records for this station are not official NWS values.
T = Trace of Precipitation, MM = Missing Value Source: NWS Daily Summary

Daily Weather History Graph

Daily Weather History Graph

Search for Another Location

Airport or City:

Trip Planner

Search our weather history database for the weather conditions in past years. The results will help you decide how hot, cold, wet, or windy it might be!

Date:

Astronomy

Mar. 09, 2014 Rise Set
Actual Time 7:40 AM EDT 7:26 PM EDT
Civil Twilight 7:15 AM EDT 7:50 PM EDT
Nautical Twilight 6:47 AM EDT 8:19 PM EDT
Astronomical Twilight 6:18 AM EDT 8:47 PM EDT
Moon 1:31 PM EDT (3/9) 3:50 AM EDT (3/9)
Length of Visible Light 12h 34m
Length of Day
11h 45m
First Quarter, 61% of the Moon is Illuminated
Mar 9
First Quarter
Mar 16
Full
Mar 23
Last Quarter
Mar 30
New
Apr 7
First Quarter

Hourly Weather History & Observations

Time (EDT) Temp. Dew Point Humidity Pressure Visibility Wind Dir Wind Speed Gust Speed Precip Events Conditions
12:15 AM 51.8 °F 44.6 °F 76% 30.12 in 7.0 mi SSW 5.8 mph - N/A   Clear
12:35 AM 51.8 °F 44.6 °F 76% 30.12 in 10.0 mi SSW 5.8 mph - N/A   Clear
12:55 AM 51.8 °F 44.6 °F 76% 30.11 in 7.0 mi SSW 6.9 mph - N/A   Clear
1:15 AM 51.8 °F 44.6 °F 76% 30.11 in 10.0 mi SW 8.1 mph - N/A   Clear
1:35 AM 51.8 °F 44.6 °F 76% 30.11 in 10.0 mi SW 8.1 mph - N/A   Clear
1:55 AM 51.8 °F 44.6 °F 76% 30.11 in 10.0 mi SW 6.9 mph - N/A   Clear
3:15 AM 51.8 °F 44.6 °F 76% 30.11 in 7.0 mi SW 5.8 mph - N/A   Clear
3:55 AM 51.8 °F 44.6 °F 76% 30.09 in 7.0 mi SW 8.1 mph - N/A   Clear
4:15 AM 51.8 °F 46.4 °F 82% 30.09 in 7.0 mi SW 6.9 mph - N/A   Clear
4:35 AM 51.8 °F 46.4 °F 82% 30.09 in 10.0 mi SW 9.2 mph - N/A   Clear
4:55 AM 51.8 °F 46.4 °F 82% 30.09 in 7.0 mi WSW 8.1 mph - N/A   Clear
5:15 AM 51.8 °F 46.4 °F 82% 30.09 in 7.0 mi SW 8.1 mph - N/A   Clear
5:35 AM 50.0 °F 46.4 °F 87% 30.09 in 7.0 mi SW 5.8 mph - N/A   Clear
5:55 AM 50.0 °F 46.4 °F 87% 30.09 in 7.0 mi SW 5.8 mph - N/A   Clear
6:15 AM 50.0 °F 46.4 °F 87% 30.11 in 7.0 mi SW 4.6 mph - N/A   Clear
6:35 AM 50.0 °F 46.4 °F 87% 30.11 in 10.0 mi SW 3.5 mph - N/A   Clear
6:55 AM 48.2 °F 46.4 °F 93% 30.11 in 7.0 mi SW 3.5 mph - N/A   Clear
7:15 AM 48.2 °F 46.4 °F 93% 30.11 in 7.0 mi WSW 4.6 mph - N/A   Clear
7:35 AM 48.2 °F 46.4 °F 93% 30.12 in 7.0 mi SW 4.6 mph - N/A   Clear
7:55 AM 48.2 °F 48.2 °F 100% 30.13 in 7.0 mi WSW 4.6 mph - N/A   Clear
8:15 AM 50.0 °F 48.2 °F 94% 30.14 in 5.0 mi WSW 5.8 mph - N/A   Clear
8:55 AM 53.6 °F 50.0 °F 88% 30.14 in 5.0 mi WSW 8.1 mph - N/A   Haze
9:15 AM 55.4 °F 50.0 °F 82% 30.15 in 7.0 mi West 8.1 mph - N/A   Clear
9:35 AM 55.4 °F 50.0 °F 82% 30.15 in 7.0 mi West 3.5 mph - N/A   Clear
9:55 AM 59.0 °F 50.0 °F 72% 30.15 in 5.0 mi West 8.1 mph - N/A   Haze
10:15 AM 59.0 °F 50.0 °F 72% 30.15 in 5.0 mi West 6.9 mph - N/A   Haze
10:35 AM 60.8 °F 50.0 °F 68% 30.14 in 10.0 mi West 5.8 mph - N/A   Clear
10:55 AM 62.6 °F 50.0 °F 63% 30.14 in 10.0 mi West 8.1 mph - N/A   Clear
11:15 AM 64.4 °F 50.0 °F 59% 30.14 in 5.0 mi WNW 5.8 mph - N/A   Haze
11:35 AM 68.0 °F 50.0 °F 52% 30.14 in 7.0 mi West 8.1 mph - N/A   Clear
11:55 AM 69.8 °F 50.0 °F 49% 30.13 in 5.0 mi West 6.9 mph - N/A   Haze
12:15 PM 69.8 °F 50.0 °F 49% 30.12 in 7.0 mi West 9.2 mph - N/A   Clear
12:35 PM 71.6 °F 50.0 °F 46% 30.12 in 7.0 mi West 10.4 mph - N/A   Clear
12:55 PM 71.6 °F 48.2 °F 43% 30.12 in 5.0 mi West 11.5 mph 17.3 mph N/A   Haze
1:15 PM 73.4 °F 48.2 °F 41% 30.10 in 7.0 mi West 15.0 mph 24.2 mph N/A   Clear
1:35 PM 73.4 °F 48.2 °F 41% 30.09 in 7.0 mi West 11.5 mph 17.3 mph N/A   Clear
1:55 PM 73.4 °F 46.4 °F 38% 30.08 in 7.0 mi WNW 11.5 mph 17.3 mph N/A   Clear
2:15 PM 73.4 °F 46.4 °F 38% 30.07 in 7.0 mi WNW 15.0 mph - N/A   Clear
2:35 PM 75.2 °F 46.4 °F 36% 30.06 in 7.0 mi West 10.4 mph - N/A   Clear
3:15 PM 75.2 °F 46.4 °F 36% 30.04 in 7.0 mi West 9.2 mph 17.3 mph N/A   Clear
3:35 PM 77.0 °F 48.2 °F 36% 30.04 in 7.0 mi West 12.7 mph 16.1 mph N/A   Clear
3:55 PM 77.0 °F 46.4 °F 34% 30.04 in 7.0 mi West 13.8 mph 19.6 mph N/A   Clear
4:15 PM 77.0 °F 46.4 °F 34% 30.04 in 7.0 mi West 11.5 mph - N/A   Clear
4:35 PM 77.0 °F 46.4 °F 34% 30.03 in 7.0 mi West 12.7 mph - N/A   Clear
4:55 PM 77.0 °F 46.4 °F 34% 30.03 in 7.0 mi WNW 9.2 mph - N/A   Clear
5:15 PM 77.0 °F 46.4 °F 34% 30.03 in 7.0 mi WSW 11.5 mph - N/A   Clear
5:35 PM 75.2 °F 46.4 °F 36% 30.03 in 7.0 mi West 10.4 mph - N/A   Clear
5:55 PM 75.2 °F 46.4 °F 36% 30.03 in 7.0 mi West 9.2 mph 17.3 mph N/A   Clear
6:15 PM 73.4 °F 46.4 °F 38% 30.02 in 7.0 mi WSW 6.9 mph - N/A   Clear
6:35 PM 73.4 °F 46.4 °F 38% 30.02 in 7.0 mi West 9.2 mph - N/A   Clear
6:55 PM 71.6 °F 46.4 °F 41% 30.02 in 7.0 mi WSW 6.9 mph - N/A   Clear
7:15 PM 69.8 °F 48.2 °F 46% 30.03 in 7.0 mi WSW 5.8 mph - N/A   Clear
7:35 PM 64.4 °F 50.0 °F 59% 30.03 in 10.0 mi SSW 4.6 mph - N/A   Clear
7:55 PM 62.6 °F 51.8 °F 68% 30.04 in 10.0 mi SSW 4.6 mph - N/A   Clear
8:15 PM 60.8 °F 51.8 °F 72% 30.05 in 10.0 mi SSW 4.6 mph - N/A   Clear
8:35 PM 60.8 °F 51.8 °F 72% 30.05 in 10.0 mi South 3.5 mph - N/A   Clear
8:55 PM 59.0 °F 51.8 °F 77% 30.05 in 7.0 mi Calm Calm - N/A   Clear
9:15 PM 57.2 °F 51.8 °F 82% 30.05 in 7.0 mi South 3.5 mph - N/A   Clear
9:35 PM 57.2 °F 51.8 °F 82% 30.05 in 7.0 mi Calm Calm - N/A   Clear
9:55 PM 55.4 °F 51.8 °F 88% 30.06 in 7.0 mi SSW 3.5 mph - N/A   Clear
10:15 PM 55.4 °F 51.8 °F 88% 30.05 in 7.0 mi SSW 3.5 mph - N/A   Clear
10:35 PM 57.2 °F 51.8 °F 82% 30.06 in 7.0 mi SSW 3.5 mph - N/A   Clear
10:55 PM 55.4 °F 51.8 °F 88% 30.06 in 7.0 mi SSW 3.5 mph - N/A   Clear
11:15 PM 55.4 °F 51.8 °F 88% 30.06 in 7.0 mi SW 4.6 mph - N/A   Clear
11:35 PM 55.4 °F 50.0 °F 82% 30.06 in 7.0 mi SW 4.6 mph - N/A   Clear
11:55 PM 55.4 °F 50.0 °F 82% 30.06 in 10.0 mi SW 5.8 mph - N/A   Clear
12:15 AM 53.6 °F 50.0 °F 88% 30.06 in 10.0 mi SSW 3.5 mph - N/A   Clear
12:35 AM 55.4 °F 50.0 °F 82% 30.06 in 10.0 mi SSW 4.6 mph - N/A   Clear
12:55 AM 55.4 °F 50.0 °F 82% 30.05 in 10.0 mi WSW 4.6 mph - N/A   Clear